When you browse on this site, cookies collect data to enhance your experience and personalize the content and advertising you see.
Visit our Privacy Policy to learn more. By continuing to use the site, you agree to this use of cookies and data.
  • In United Kingdom
  • List of Countries
  • For 7 days
  • Water Temperature
  • Satellite Maps
  • Weather Map
  • Weather Widgets
  • user-avatar
    Login

    Hourly Weather Barisal

    Today, 24 March, Sunday

    Time Temperature Precipitation Wind Pressure Humidity
    00:00 +27°C° 0 mm 2 mps 757 mmHg 78%
    01:00 +27°C° 0 mm 2 mps 756 mmHg 77%
    02:00 +27°C° 0 mm 2 mps 756 mmHg 76%
    03:00 +26°C° 0 mm 2 mps 756 mmHg 75%
    04:00 +26°C° 0 mm 1 mps 756 mmHg 74%
    05:00 +26°C° 0 mm 1 mps 756 mmHg 74%
    06:00 +25°C° 0 mm 1 mps 757 mmHg 73%
    07:00 +28°C° 0 mm 1 mps 757 mmHg 62%
    08:00 +30°C° 0 mm 1 mps 758 mmHg 52%
    09:00 +32°C° 0 mm 1 mps 758 mmHg 42%
    10:00 +34°C° 0 mm 1 mps 758 mmHg 35%
    11:00 +37°C° 0 mm 2 mps 758 mmHg 28%
    12:00 +38°C° 0 mm 2 mps 758 mmHg 20%
    13:00 +39°C° 0 mm 2 mps 757 mmHg 18%
    14:00 +39°C° 0 mm 2 mps 756 mmHg 16%
    15:00 +40°C° 0 mm 2 mps 756 mmHg 14%
    16:00 +38°C° 0 mm 2 mps 755 mmHg 19%
    17:00 +36°C° 0 mm 3 mps 755 mmHg 24%
    18:00 +34°C° 0 mm 3 mps 755 mmHg 29%
    19:00 +33°C° 0 mm 3 mps 756 mmHg 35%
    20:00 +30°C° 0 mm 3 mps 756 mmHg 41%
    21:00 +29°C° 0 mm 3 mps 756 mmHg 47%
    22:00 +28°C° 0 mm 3 mps 756 mmHg 48%
    23:00 +27°C° 0 mm 2 mps 756 mmHg 50%

    Tomorrow, 25 March, Monday

    Time Temperature Precipitation Wind Pressure Humidity
    00:00 +27°C° 0 mm 2 mps 757 mmHg 51%
    01:00 +26°C° 0 mm 2 mps 756 mmHg 50%
    02:00 +26°C° 0 mm 2 mps 756 mmHg 48%
    03:00 +26°C° 0 mm 2 mps 756 mmHg 47%
    04:00 +25°C° 0 mm 2 mps 756 mmHg 45%
    05:00 +25°C° 0 mm 2 mps 756 mmHg 42%
    06:00 +25°C° 0 mm 2 mps 756 mmHg 40%
    07:00 +27°C° 0 mm 2 mps 757 mmHg 35%
    08:00 +30°C° 0 mm 1 mps 758 mmHg 29%
    09:00 +32°C° 0 mm 1 mps 758 mmHg 23%
    10:00 +35°C° 0 mm 1 mps 758 mmHg 20%
    11:00 +37°C° 0 mm 1 mps 758 mmHg 17%
    12:00 +37°C° 0 mm 0 mps 758 mmHg 13%
    13:00 +40°C° 0 mm 1 mps 757 mmHg 13%
    14:00 +40°C° 0 mm 1 mps 756 mmHg 13%
    15:00 +41°C° 0 mm 2 mps 755 mmHg 12%
    16:00 +39°C° 0 mm 2 mps 755 mmHg 17%
    17:00 +37°C° 0 mm 3 mps 755 mmHg 22%
    18:00 +35°C° 0 mm 4 mps 755 mmHg 27%
    19:00 +33°C° 0 mm 4 mps 755 mmHg 31%
    20:00 +32°C° 0 mm 4 mps 756 mmHg 36%
    21:00 +30°C° 0 mm 3 mps 756 mmHg 40%
    22:00 +29°C° 0 mm 3 mps 756 mmHg 44%
    23:00 +29°C° 0 mm 3 mps 756 mmHg 48%

    Day after tomorrow, 26 March, Tuesday

    Time Temperature Precipitation Wind Pressure Humidity
    00:00 +28°C° 0 mm 2 mps 756 mmHg 52%
    01:00 +28°C° 0 mm 2 mps 756 mmHg 54%
    02:00 +27°C° 0 mm 2 mps 756 mmHg 55%
    03:00 +27°C° 0 mm 2 mps 755 mmHg 57%
    04:00 +27°C° 0 mm 2 mps 756 mmHg 59%
    05:00 +26°C° 0 mm 2 mps 756 mmHg 61%
    06:00 +26°C° 0 mm 1 mps 756 mmHg 64%
    07:00 +28°C° 0 mm 2 mps 757 mmHg 57%
    08:00 +30°C° 0 mm 2 mps 758 mmHg 50%
    09:00 +34°C° 0 mm 2 mps 758 mmHg 43%
    10:00 +36°C° 0 mm 2 mps 758 mmHg 37%
    11:00 +37°C° 0 mm 3 mps 758 mmHg 31%
    12:00 +39°C° 0 mm 3 mps 758 mmHg 24%
    13:00 +40°C° 0 mm 3 mps 757 mmHg 24%
    14:00 +41°C° 0 mm 4 mps 756 mmHg 24%
    15:00 +42°C° 0 mm 4 mps 756 mmHg 23%
    16:00 +39°C° 0 mm 5 mps 755 mmHg 30%
    17:00 +36°C° 0 mm 5 mps 755 mmHg 36%
    18:00 +34°C° 0 mm 6 mps 755 mmHg 43%
    19:00 +33°C° 0 mm 5 mps 756 mmHg 51%
    20:00 +30°C° 0 mm 4 mps 757 mmHg 60%
    21:00 +29°C° 0 mm 4 mps 758 mmHg 69%
    22:00 +29°C° 0 mm 4 mps 758 mmHg 61%
    23:00 +29°C° 0 mm 5 mps 759 mmHg 53%

    27 March, Wednesday

    Time Temperature Precipitation Wind Pressure Humidity
    00:00 +29°C° 0 mm 5 mps 759 mmHg 46%
    01:00 +29°C° 0 mm 5 mps 758 mmHg 45%
    02:00 +28°C° 0 mm 4 mps 758 mmHg 44%
    03:00 +28°C° 0 mm 3 mps 758 mmHg 44%
    04:00 +28°C° 0 mm 3 mps 758 mmHg 47%
    05:00 +27°C° 0 mm 3 mps 758 mmHg 50%
    06:00 +27°C° 0 mm 3 mps 758 mmHg 53%
    07:00 +28°C° 0 mm 4 mps 758 mmHg 51%
    08:00 +30°C° 0 mm 5 mps 759 mmHg 49%
    09:00 +32°C° 0 mm 6 mps 759 mmHg 47%
    10:00 +33°C° 0 mm 6 mps 759 mmHg 46%
    11:00 +34°C° 0 mm 6 mps 759 mmHg 44%
    12:00 +34°C° 0 mm 5 mps 758 mmHg 43%
    13:00 +35°C° 0 mm 5 mps 757 mmHg 40%
    14:00 +36°C° 0 mm 5 mps 757 mmHg 37%
    15:00 +37°C° 0 mm 4 mps 756 mmHg 34%
    16:00 +35°C° 0 mm 4 mps 756 mmHg 39%
    17:00 +34°C° 0 mm 5 mps 756 mmHg 44%
    18:00 +32°C° 0 mm 5 mps 756 mmHg 48%
    19:00 +30°C° 0.2 mm 4 mps 757 mmHg 57%
    20:00 +29°C° 0.2 mm 3 mps 757 mmHg 66%
    21:00 +28°C° 0.2 mm 3 mps 758 mmHg 75%
    22:00 +28°C° 0.2 mm 3 mps 758 mmHg 77%
    23:00 +27°C° 0.2 mm 3 mps 758 mmHg 79%

    28 March, Thursday

    Time Temperature Precipitation Wind Pressure Humidity
    00:00 +27°C° 0.2 mm 3 mps 758 mmHg 82%
    01:00 +27°C° 0.5 mm 3 mps 758 mmHg 84%
    02:00 +26°C° 0.5 mm 2 mps 757 mmHg 86%
    03:00 +26°C° 0.5 mm 1 mps 757 mmHg 88%
    04:00 +26°C° 0 mm 1 mps 757 mmHg 88%
    05:00 +26°C° 0 mm 1 mps 758 mmHg 89%
    06:00 +25°C° 0 mm 1 mps 758 mmHg 90%
    07:00 +25°C° 0 mm 0 mps 758 mmHg 79%
    08:00 +28°C° 0 mm 0 mps 759 mmHg 68%
    09:00 +30°C° 0 mm 0 mps 760 mmHg 56%
    10:00 +31°C° 0 mm 0 mps 759 mmHg 49%
    11:00 +33°C° 0 mm 0 mps 759 mmHg 41%
    12:00 +36°C° 0 mm 1 mps 758 mmHg 34%
    13:00 +36°C° 0 mm 1 mps 758 mmHg 33%
    14:00 +36°C° 0 mm 1 mps 757 mmHg 32%
    15:00 +36°C° 0 mm 1 mps 756 mmHg 31%
    16:00 +36°C° 0 mm 2 mps 756 mmHg 36%
    17:00 +35°C° 0 mm 3 mps 756 mmHg 41%
    18:00 +34°C° 0 mm 3 mps 756 mmHg 46%
    19:00 +33°C° 0 mm 3 mps 756 mmHg 53%
    20:00 +31°C° 0 mm 3 mps 757 mmHg 60%
    21:00 +29°C° 0 mm 3 mps 757 mmHg 66%
    22:00 +29°C° 0 mm 3 mps 757 mmHg 68%
    23:00 +28°C° 0 mm 3 mps 757 mmHg 70%

    29 March, Friday

    Time Temperature Precipitation Wind Pressure Humidity
    00:00 +28°C° 0 mm 2 mps 757 mmHg 72%
    01:00 +28°C° 0 mm 2 mps 756 mmHg 74%
    02:00 +27°C° 0 mm 2 mps 756 mmHg 76%
    03:00 +27°C° 0 mm 1 mps 756 mmHg 78%
    04:00 +27°C° 0 mm 1 mps 756 mmHg 78%
    05:00 +27°C° 0 mm 1 mps 756 mmHg 79%
    06:00 +26°C° 0 mm 1 mps 756 mmHg 80%
    07:00 +28°C° 0 mm 1 mps 757 mmHg 71%
    08:00 +30°C° 0 mm 2 mps 757 mmHg 62%
    09:00 +32°C° 0 mm 2 mps 758 mmHg 54%
    10:00 +35°C° 0 mm 2 mps 758 mmHg 47%
    11:00 +36°C° 0 mm 2 mps 757 mmHg 40%
    12:00 +38°C° 0 mm 2 mps 757 mmHg 33%
    13:00 +38°C° 0 mm 3 mps 756 mmHg 32%
    14:00 +39°C° 0 mm 3 mps 755 mmHg 31%
    15:00 +40°C° 0 mm 4 mps 755 mmHg 30%
    16:00 +37°C° 0 mm 4 mps 755 mmHg 35%
    17:00 +36°C° 0 mm 5 mps 755 mmHg 39%
    18:00 +34°C° 0 mm 6 mps 755 mmHg 44%
    19:00 +33°C° 0 mm 5 mps 755 mmHg 48%
    20:00 +32°C° 0 mm 4 mps 756 mmHg 52%
    21:00 +30°C° 0 mm 4 mps 756 mmHg 57%
    22:00 +30°C° 0 mm 3 mps 756 mmHg 60%
    23:00 +29°C° 0 mm 3 mps 756 mmHg 63%
    Show more